This demonstration page uses our WeatherBlox Daily Observations layout. Learn more.

Left ArrowRight Arrow

41.55636, -103.73856

Hourly Observations for August 19, 2021

Temp ( °F °C ) Dew Point ( °F °C ) Humidity (%) Winds ( mph kmh ) Pressure ( in mb ) Visibility ( mi km ) Precip ( " mm )
12:58 am 00:58 Mostly Cloudy 73 22.8 56 13.3 55 55 E 7 11 29.83 1010 10 16 0.00 0.00
1:58 am 01:58 Mostly Cloudy 71 21.5 57 13.7 61 61 SE 8 13 29.82 1010 10 16 0.00 0.00
2:58 am 02:58 Mostly Cloudy 69 20.6 57 14.1 66 66 SE 13 20 29.80 1009 10 16 0.00 0.00
3:58 am 03:58 Cloudy 66 19.1 58 14.2 73 73 W 6 9 29.81 1010 10 16 0.00 0.00
4:58 am 04:58 Cloudy 62 16.5 55 12.8 79 79 WNW 10 17 29.83 1010 10 16 0.00 0.00
5:58 am 05:58 Cloudy 60 15.7 53 11.8 78 78 WNW 7 11 29.83 1010 10 16 0.00 0.00
6:58 am 06:58 Cloudy 60 15.6 53 11.7 78 78 WNW 8 13 29.85 1011 10 16 0.00 0.00
7:58 am 07:58 Cloudy 59 15.1 54 12.2 83 83 WNW 7 11 29.85 1011 8 13 0.00 0.00
8:58 am 08:58 Cloudy with Light Showers 59 14.8 56 13.2 90 90 WNW 7 11 29.87 1012 6 10 0.00 0.00
9:58 am 09:58 Cloudy with Light Showers 60 15.5 56 13.1 86 86 WNW 10 17 29.87 1012 9 14 0.00 0.00
10:58 am 10:58 Cloudy 64 17.9 55 12.6 71 71 NW 12 19 29.88 1012 10 16 0.00 0.00
11:58 am 11:58 Mostly Cloudy 68 20.2 55 12.8 63 63 WNW 9 15 29.87 1011 10 16 0.00 0.00
12:58 pm 12:58 Mostly Cloudy 70 21.1 56 13.4 62 62 Calm 29.85 1011 10 16 0.00 0.00
1:58 pm 13:58 Sunny 75 24 57 13.8 53 53 ESE 3 6 29.82 1010 10 16 0.00 0.00
2:58 pm 14:58 Sunny 80 26.5 51 10.7 37 37 NW 12 19 29.77 1008 10 16 0.00 0.00
3:58 pm 15:58 Mostly Cloudy 80 26.6 52 11.1 38 38 N 8 13 29.78 1008 10 16 0.00 0.00
4:58 pm 16:58 Mostly Cloudy 76 24.3 54 12.4 47 47 NE 16 26 29.79 1009 10 16 0.00 0.00
5:58 pm 17:58 Mostly Sunny 75 24.1 50 10 41 41 NE 9 15 29.79 1009 10 16 0.00 0.00
6:58 pm 18:58 Mostly Cloudy 71 21.9 55 12.8 56 56 E 13 20 29.80 1009 10 16 0.00 0.00
7:58 pm 19:58 Mostly Clear 67 19.3 59 15.1 77 77 E 13 20 29.81 1010 10 16 0.00 0.00
8:58 pm 20:58 Partly Cloudy 64 17.8 59 14.9 83 83 ESE 8 13 29.83 1010 10 16 0.00 0.00
9:58 pm 21:58 Mostly Cloudy 63 17.1 51 10.5 65 65 NW 14 22 29.87 1012 10 16 0.00 0.00
10:58 pm 22:58 Mostly Cloudy 60 15.7 54 12 79 79 WSW 6 9 29.85 1011 10 16 0.00 0.00
11:58 pm 23:58 Mostly Cloudy with Light Showers 61 16.3 55 12.7 79 79 Calm 29.83 1010 10 16 0.00 0.00

Powered by AerisWeather